Time,TemperatureF,DewpointF,PressureIn,WindDirection,WindDirectionDegrees,WindSpeedMPH,WindSpeedGustMPH,Humidity,HourlyPrecipIn,Conditions,Clouds,dailyrainin,SoftwareType,DateUTC
2013-01-20 00:04:00,41.0,27.0,30.20,SSW,196,0.0,2.0,58,0.00,,,0.00,,2013-01-20 05:04:00,
2013-01-20 00:12:00,41.0,27.0,30.20,SSW,196,0.0,2.0,58,0.00,,,0.00,,2013-01-20 05:12:00,
2013-01-20 00:22:00,40.0,27.0,30.20,SSW,196,0.0,0.0,60,0.00,,,0.00,,2013-01-20 05:22:00,
2013-01-20 00:33:00,41.0,27.0,30.20,SSW,196,0.0,2.0,58,0.00,,,0.00,,2013-01-20 05:33:00,
2013-01-20 00:43:00,41.0,27.0,30.20,SSW,196,0.0,2.0,58,0.00,,,0.00,,2013-01-20 05:43:00,
2013-01-20 00:53:00,41.0,27.0,30.19,SSW,196,1.0,3.0,58,0.00,,,0.00,,2013-01-20 05:53:00,
2013-01-20 01:02:00,40.0,28.0,30.19,SSW,196,1.0,2.0,61,0.00,,,0.00,,2013-01-20 06:02:00,
2013-01-20 01:12:00,40.0,28.0,30.19,SSW,196,1.0,2.0,61,0.00,,,0.00,,2013-01-20 06:12:00,
2013-01-20 01:22:00,40.0,28.0,30.19,SSW,196,0.0,0.0,61,0.00,,,0.00,,2013-01-20 06:22:00,
2013-01-20 01:33:00,40.0,28.0,30.19,SSW,196,0.0,1.0,62,0.00,,,0.00,,2013-01-20 06:33:00,
2013-01-20 01:43:00,40.0,28.0,30.19,SSW,196,0.0,1.0,62,0.00,,,0.00,,2013-01-20 06:43:00,
2013-01-20 01:52:00,39.0,27.0,30.19,SSW,196,0.0,0.0,63,0.00,,,0.00,,2013-01-20 06:52:00,
2013-01-20 02:02:00,39.0,28.0,30.19,SSW,196,0.0,0.0,65,0.00,,,0.00,,2013-01-20 07:02:00,
2013-01-20 02:12:00,39.0,28.0,30.19,SSW,196,0.0,0.0,65,0.00,,,0.00,,2013-01-20 07:12:00,
2013-01-20 02:22:00,38.0,28.0,30.19,SSW,196,0.0,0.0,67,0.00,,,0.00,,2013-01-20 07:22:00,
2013-01-20 02:32:00,38.0,28.0,30.19,SSW,196,0.0,0.0,67,0.00,,,0.00,,2013-01-20 07:32:00,
2013-01-20 02:42:00,38.0,28.0,30.19,SSW,196,0.0,0.0,67,0.00,,,0.00,,2013-01-20 07:42:00,
2013-01-20 02:52:00,38.0,28.0,30.19,SSW,196,0.0,1.0,68,0.00,,,0.00,,2013-01-20 07:52:00,
2013-01-20 03:02:00,38.0,28.0,30.20,SSW,196,0.0,0.0,67,0.00,,,0.00,,2013-01-20 08:02:00,
2013-01-20 03:12:00,38.0,28.0,30.20,SSW,196,0.0,0.0,67,0.00,,,0.00,,2013-01-20 08:12:00,
2013-01-20 03:22:00,39.0,29.0,30.19,SSW,196,0.0,3.0,67,0.00,,,0.00,,2013-01-20 08:22:00,
2013-01-20 03:32:00,38.0,28.0,30.20,SSW,196,0.0,2.0,67,0.00,,,0.00,,2013-01-20 08:32:00,
2013-01-20 03:42:00,38.0,28.0,30.20,SSW,196,0.0,2.0,67,0.00,,,0.00,,2013-01-20 08:42:00,
2013-01-20 03:52:00,39.0,29.0,30.19,SSW,196,0.0,0.0,68,0.00,,,0.00,,2013-01-20 08:52:00,
2013-01-20 04:02:00,38.0,28.0,30.19,SSW,196,0.0,0.0,68,0.00,,,0.00,,2013-01-20 09:02:00,
2013-01-20 04:12:00,38.0,28.0,30.19,SSW,196,0.0,0.0,68,0.00,,,0.00,,2013-01-20 09:12:00,
2013-01-20 04:22:00,39.0,29.0,30.19,SSW,196,1.0,2.0,67,0.00,,,0.00,,2013-01-20 09:22:00,
2013-01-20 04:33:00,40.0,29.0,30.19,SSW,196,1.0,5.0,65,0.00,,,0.00,,2013-01-20 09:33:00,
2013-01-20 04:42:00,40.0,29.0,30.19,SSW,196,1.0,5.0,65,0.00,,,0.00,,2013-01-20 09:42:00,
2013-01-20 04:52:00,41.0,30.0,30.19,SSW,193,1.0,5.0,64,0.00,,,0.00,,2013-01-20 09:52:00,
2013-01-20 05:03:00,41.0,29.0,30.18,SSW,208,3.0,6.0,62,0.00,,,0.00,,2013-01-20 10:03:00,
2013-01-20 05:12:00,41.0,29.0,30.18,SSW,208,3.0,6.0,62,0.00,,,0.00,,2013-01-20 10:12:00,
2013-01-20 05:22:00,41.0,29.0,30.18,South,188,2.0,7.0,61,0.00,,,0.00,,2013-01-20 10:22:00,
2013-01-20 05:32:00,41.0,29.0,30.17,South,188,1.0,7.0,62,0.00,,,0.00,,2013-01-20 10:32:00,
2013-01-20 05:42:00,41.0,29.0,30.17,South,188,1.0,7.0,62,0.00,,,0.00,,2013-01-20 10:42:00,
2013-01-20 05:52:00,41.0,29.0,30.17,SSW,195,2.0,7.0,61,0.00,,,0.00,,2013-01-20 10:52:00,
2013-01-20 06:03:00,41.0,29.0,30.17,SSW,199,2.0,7.0,62,0.00,,,0.00,,2013-01-20 11:03:00,
2013-01-20 06:12:00,41.0,29.0,30.17,SSW,196,3.0,7.0,62,0.00,,,0.00,,2013-01-20 11:12:00,
2013-01-20 06:22:00,41.0,29.0,30.17,SSW,196,3.0,7.0,62,0.00,,,0.00,,2013-01-20 11:22:00,
2013-01-20 06:33:00,42.0,30.0,30.17,SSW,200,2.0,6.0,62,0.00,,,0.00,,2013-01-20 11:33:00,
2013-01-20 06:43:00,42.0,30.0,30.17,SSW,200,2.0,6.0,62,0.00,,,0.00,,2013-01-20 11:43:00,
2013-01-20 06:53:00,41.0,29.0,30.17,SSW,198,2.0,6.0,63,0.00,,,0.00,,2013-01-20 11:53:00,
2013-01-20 07:03:00,41.0,30.0,30.18,SSW,199,1.0,7.0,64,0.00,,,0.00,,2013-01-20 12:03:00,
2013-01-20 07:13:00,41.0,30.0,30.18,SSW,199,1.0,7.0,64,0.00,,,0.00,,2013-01-20 12:13:00,
2013-01-20 07:23:00,41.0,30.0,30.18,SSW,192,2.0,7.0,64,0.00,,,0.00,,2013-01-20 12:23:00,
2013-01-20 07:33:00,41.0,30.0,30.18,SW,216,3.0,6.0,64,0.00,,,0.00,,2013-01-20 12:33:00,
2013-01-20 07:43:00,41.0,30.0,30.18,SW,216,3.0,6.0,64,0.00,,,0.00,,2013-01-20 12:43:00,
2013-01-20 07:52:00,41.0,29.0,30.19,SSW,209,3.0,6.0,63,0.00,,,0.00,,2013-01-20 12:52:00,
2013-01-20 08:03:00,41.0,29.0,30.19,South,191,2.0,6.0,63,0.00,,,0.00,,2013-01-20 13:03:00,
2013-01-20 08:12:00,41.0,29.0,30.19,South,191,2.0,6.0,63,0.00,,,0.00,,2013-01-20 13:12:00,
2013-01-20 08:23:00,41.0,30.0,30.19,SSW,195,2.0,5.0,65,0.00,,,0.00,,2013-01-20 13:23:00,
2013-01-20 08:33:00,41.0,30.0,30.19,SSW,192,1.0,5.0,65,0.00,,,0.00,,2013-01-20 13:33:00,
2013-01-20 08:43:00,41.0,30.0,30.19,SSW,192,1.0,5.0,65,0.00,,,0.00,,2013-01-20 13:43:00,
2013-01-20 08:52:00,42.0,31.0,30.19,SSW,193,0.0,3.0,65,0.00,,,0.00,,2013-01-20 13:52:00,
2013-01-20 09:03:00,43.0,31.0,30.20,SSW,198,2.0,3.0,63,0.00,,,0.00,,2013-01-20 14:03:00,
2013-01-20 09:12:00,43.0,31.0,30.20,SSW,198,2.0,3.0,63,0.00,,,0.00,,2013-01-20 14:12:00,
2013-01-20 09:23:00,44.0,32.0,30.19,SW,216,1.0,7.0,62,0.00,,,0.00,,2013-01-20 14:23:00,
2013-01-20 09:33:00,45.0,32.0,30.19,SW,230,0.0,5.0,59,0.00,,,0.00,,2013-01-20 14:33:00,
2013-01-20 09:43:00,45.0,32.0,30.19,SW,230,0.0,5.0,59,0.00,,,0.00,,2013-01-20 14:43:00,
2013-01-20 09:53:00,46.0,32.0,30.20,SW,232,2.0,8.0,57,0.00,,,0.00,,2013-01-20 14:53:00,
2013-01-20 10:03:00,46.0,31.0,30.20,SSW,212,1.0,7.0,56,0.00,,,0.00,,2013-01-20 15:03:00,
2013-01-20 10:13:00,46.0,31.0,30.20,SSW,212,1.0,7.0,56,0.00,,,0.00,,2013-01-20 15:13:00,
2013-01-20 10:23:00,48.0,33.0,30.20,SW,226,0.0,6.0,55,0.00,,,0.00,,2013-01-20 15:23:00,
2013-01-20 10:33:00,48.0,32.0,30.20,SW,223,1.0,7.0,54,0.00,,,0.00,,2013-01-20 15:33:00,
2013-01-20 10:43:00,48.0,32.0,30.20,SW,223,1.0,7.0,54,0.00,,,0.00,,2013-01-20 15:43:00,
2013-01-20 10:53:00,50.0,34.0,30.20,WSW,246,3.0,5.0,53,0.00,,,0.00,,2013-01-20 15:53:00,
2013-01-20 11:03:00,50.0,33.0,30.20,WSW,241,0.0,5.0,51,0.00,,,0.00,,2013-01-20 16:03:00,
2013-01-20 11:12:00,50.0,33.0,30.20,WSW,241,0.0,5.0,51,0.00,,,0.00,,2013-01-20 16:12:00,
2013-01-20 11:23:00,51.0,33.0,30.20,West,275,2.0,5.0,50,0.00,,,0.00,,2013-01-20 16:23:00,
2013-01-20 11:33:00,51.0,33.0,30.20,NNW,328,1.0,5.0,50,0.00,,,0.00,,2013-01-20 16:33:00,
2013-01-20 11:43:00,51.0,33.0,30.20,NNW,328,1.0,5.0,50,0.00,,,0.00,,2013-01-20 16:43:00,
2013-01-20 11:52:00,52.0,33.0,30.20,NNE,14,2.0,6.0,49,0.00,,,0.00,,2013-01-20 16:52:00,
2013-01-20 12:03:00,53.0,34.0,30.21,NNE,14,1.0,6.0,48,0.00,,,0.00,,2013-01-20 17:03:00,
2013-01-20 12:13:00,53.0,34.0,30.21,NNE,14,1.0,6.0,48,0.00,,,0.00,,2013-01-20 17:13:00,
2013-01-20 12:22:00,53.0,34.0,30.20,West,267,3.0,6.0,48,0.00,,,0.00,,2013-01-20 17:22:00,
2013-01-20 12:33:00,54.0,34.0,30.19,SE,133,2.0,6.0,47,0.00,,,0.00,,2013-01-20 17:33:00,
2013-01-20 12:43:00,54.0,34.0,30.19,SE,133,2.0,6.0,47,0.00,,,0.00,,2013-01-20 17:43:00,
2013-01-20 12:52:00,54.0,34.0,30.19,SE,133,1.0,5.0,46,0.00,,,0.00,,2013-01-20 17:52:00,
2013-01-20 13:03:00,54.0,34.0,30.17,WSW,243,4.0,6.0,46,0.00,,,0.00,,2013-01-20 18:03:00,
2013-01-20 13:13:00,54.0,34.0,30.16,SE,133,3.0,7.0,46,0.00,,,0.00,,2013-01-20 18:13:00,
2013-01-20 13:23:00,54.0,34.0,30.16,SE,133,3.0,7.0,46,0.00,,,0.00,,2013-01-20 18:23:00,
2013-01-20 13:33:00,54.0,34.0,30.15,ESE,103,2.0,10.0,46,0.00,,,0.00,,2013-01-20 18:33:00,
2013-01-20 13:43:00,54.0,34.0,30.15,ESE,103,2.0,10.0,46,0.00,,,0.00,,2013-01-20 18:43:00,
2013-01-20 13:53:00,54.0,34.0,30.15,SE,128,2.0,7.0,46,0.00,,,0.00,,2013-01-20 18:53:00,
2013-01-20 14:03:00,55.0,35.0,30.14,ESE,119,2.0,5.0,46,0.00,,,0.00,,2013-01-20 19:03:00,
2013-01-20 14:12:00,55.0,35.0,30.14,ESE,119,2.0,5.0,46,0.00,,,0.00,,2013-01-20 19:12:00,
2013-01-20 14:22:00,55.0,35.0,30.13,SE,143,2.0,6.0,46,0.00,,,0.00,,2013-01-20 19:22:00,
2013-01-20 14:33:00,56.0,34.0,30.13,ESE,117,3.0,6.0,44,0.00,,,0.00,,2013-01-20 19:33:00,
2013-01-20 14:43:00,56.0,34.0,30.13,ESE,117,3.0,6.0,44,0.00,,,0.00,,2013-01-20 19:43:00,
2013-01-20 14:52:00,56.0,33.0,30.12,East,92,2.0,7.0,42,0.00,,,0.00,,2013-01-20 19:52:00,
2013-01-20 15:03:00,57.0,35.0,30.11,SE,124,1.0,7.0,43,0.00,,,0.00,,2013-01-20 20:03:00,
2013-01-20 15:12:00,57.0,35.0,30.11,SE,124,1.0,7.0,43,0.00,,,0.00,,2013-01-20 20:12:00,
2013-01-20 15:23:00,57.0,34.0,30.11,ESE,121,3.0,6.0,41,0.00,,,0.00,,2013-01-20 20:23:00,
2013-01-20 15:33:00,58.0,34.0,30.11,SE,133,1.0,6.0,41,0.00,,,0.00,,2013-01-20 20:33:00,
2013-01-20 15:42:00,58.0,34.0,30.11,SE,133,1.0,6.0,41,0.00,,,0.00,,2013-01-20 20:42:00,
2013-01-20 15:53:00,57.0,34.0,30.10,SE,128,3.0,7.0,41,0.00,,,0.00,,2013-01-20 20:53:00,
2013-01-20 16:04:00,57.0,34.0,30.10,East,83,1.0,5.0,41,0.00,,,0.00,,2013-01-20 21:04:00,
2013-01-20 16:13:00,57.0,34.0,30.10,East,83,1.0,5.0,41,0.00,,,0.00,,2013-01-20 21:13:00,
2013-01-20 16:23:00,57.0,33.0,30.11,SE,130,1.0,7.0,40,0.00,,,0.00,,2013-01-20 21:23:00,
2013-01-20 16:33:00,58.0,34.0,30.11,SE,133,0.0,5.0,41,0.00,,,0.00,,2013-01-20 21:33:00,
2013-01-20 16:43:00,58.0,34.0,30.11,SE,133,0.0,5.0,41,0.00,,,0.00,,2013-01-20 21:43:00,
2013-01-20 16:53:00,57.0,33.0,30.11,ESE,110,0.0,4.0,40,0.00,,,0.00,,2013-01-20 21:53:00,
2013-01-20 17:03:00,57.0,33.0,30.11,East,85,1.0,3.0,40,0.00,,,0.00,,2013-01-20 22:03:00,
2013-01-20 17:13:00,57.0,33.0,30.11,East,85,1.0,3.0,40,0.00,,,0.00,,2013-01-20 22:13:00,
2013-01-20 17:23:00,57.0,34.0,30.11,East,85,0.0,2.0,41,0.00,,,0.00,,2013-01-20 22:23:00,
2013-01-20 17:33:00,56.0,33.0,30.11,East,85,0.0,1.0,41,0.00,,,0.00,,2013-01-20 22:33:00,
2013-01-20 17:43:00,56.0,33.0,30.11,East,85,0.0,1.0,41,0.00,,,0.00,,2013-01-20 22:43:00,
2013-01-20 17:52:00,56.0,33.0,30.11,East,85,0.0,0.0,42,0.00,,,0.00,,2013-01-20 22:52:00,
2013-01-20 18:03:00,55.0,33.0,30.11,East,85,0.0,0.0,43,0.00,,,0.00,,2013-01-20 23:03:00,
2013-01-20 18:13:00,55.0,33.0,30.11,East,85,0.0,0.0,43,0.00,,,0.00,,2013-01-20 23:13:00,
2013-01-20 18:23:00,55.0,33.0,30.11,NE,44,1.0,5.0,43,0.00,,,0.00,,2013-01-20 23:23:00,
2013-01-20 18:33:00,54.0,30.0,30.11,NNE,17,1.0,5.0,40,0.00,,,0.00,,2013-01-20 23:33:00,
2013-01-20 18:43:00,54.0,30.0,30.11,NNE,17,1.0,5.0,40,0.00,,,0.00,,2013-01-20 23:43:00,
2013-01-20 18:53:00,53.0,28.0,30.12,NNE,23,2.0,7.0,38,0.00,,,0.00,,2013-01-20 23:53:00,
2013-01-20 19:03:00,53.0,28.0,30.12,North,7,4.0,6.0,38,0.00,,,0.00,,2013-01-21 00:03:00,
2013-01-20 19:13:00,53.0,28.0,30.12,North,7,4.0,6.0,38,0.00,,,0.00,,2013-01-21 00:13:00,
2013-01-20 19:23:00,52.0,28.0,30.13,North,7,2.0,5.0,39,0.00,,,0.00,,2013-01-21 00:23:00,
2013-01-20 19:33:00,51.0,28.0,30.13,North,7,0.0,3.0,41,0.00,,,0.00,,2013-01-21 00:33:00,
2013-01-20 19:43:00,51.0,28.0,30.13,North,7,0.0,3.0,41,0.00,,,0.00,,2013-01-21 00:43:00,
2013-01-20 19:53:00,50.0,28.0,30.13,NNE,25,0.0,5.0,42,0.00,,,0.00,,2013-01-21 00:53:00,
2013-01-20 20:03:00,49.0,27.0,30.13,NNE,25,0.0,3.0,42,0.00,,,0.00,,2013-01-21 01:03:00,
2013-01-20 20:13:00,49.0,27.0,30.13,NNE,25,0.0,3.0,42,0.00,,,0.00,,2013-01-21 01:13:00,
2013-01-20 20:23:00,49.0,27.0,30.13,NNE,25,0.0,3.0,43,0.00,,,0.00,,2013-01-21 01:23:00,
2013-01-20 20:33:00,48.0,27.0,30.14,North,360,1.0,5.0,43,0.00,,,0.00,,2013-01-21 01:33:00,
2013-01-20 20:43:00,48.0,27.0,30.14,North,360,1.0,5.0,43,0.00,,,0.00,,2013-01-21 01:43:00,
2013-01-20 20:53:00,48.0,27.0,30.13,North,8,2.0,6.0,43,0.00,,,0.00,,2013-01-21 01:53:00,
2013-01-20 21:03:00,48.0,26.0,30.13,North,360,0.0,3.0,42,0.00,,,0.00,,2013-01-21 02:03:00,
2013-01-20 21:13:00,48.0,26.0,30.13,North,360,0.0,3.0,42,0.00,,,0.00,,2013-01-21 02:13:00,
2013-01-20 21:23:00,47.0,25.0,30.13,North,354,0.0,2.0,42,0.00,,,0.00,,2013-01-21 02:23:00,
2013-01-20 21:33:00,46.0,26.0,30.13,NNW,330,0.0,2.0,45,0.00,,,0.00,,2013-01-21 02:33:00,
2013-01-20 21:43:00,46.0,26.0,30.13,NNW,330,0.0,2.0,45,0.00,,,0.00,,2013-01-21 02:43:00,
2013-01-20 21:53:00,45.0,26.0,30.12,NNW,330,1.0,2.0,47,0.00,,,0.00,,2013-01-21 02:53:00,
2013-01-20 22:03:00,45.0,27.0,30.13,NNW,337,0.0,2.0,48,0.00,,,0.00,,2013-01-21 03:03:00,
2013-01-20 22:13:00,45.0,27.0,30.13,NNW,337,0.0,2.0,48,0.00,,,0.00,,2013-01-21 03:13:00,
2013-01-20 22:23:00,45.0,26.0,30.12,NNW,337,0.0,2.0,47,0.00,,,0.00,,2013-01-21 03:23:00,
2013-01-20 22:33:00,45.0,26.0,30.13,NE,44,1.0,3.0,47,0.00,,,0.00,,2013-01-21 03:33:00,
2013-01-20 22:43:00,45.0,26.0,30.13,NE,44,1.0,3.0,47,0.00,,,0.00,,2013-01-21 03:43:00,
2013-01-20 22:53:00,45.0,27.0,30.12,NNW,346,0.0,5.0,48,0.00,,,0.00,,2013-01-21 03:53:00,
2013-01-20 23:03:00,44.0,26.0,30.13,NNW,346,0.0,1.0,49,0.00,,,0.00,,2013-01-21 04:03:00,
2013-01-20 23:13:00,44.0,26.0,30.13,NNW,346,0.0,1.0,49,0.00,,,0.00,,2013-01-21 04:13:00,
2013-01-20 23:23:00,44.0,26.0,30.13,NNW,346,0.0,2.0,49,0.00,,,0.00,,2013-01-21 04:23:00,
2013-01-20 23:33:00,43.0,25.0,30.13,NNW,346,0.0,0.0,49,0.00,,,0.00,,2013-01-21 04:33:00,
2013-01-20 23:43:00,43.0,25.0,30.13,NNW,346,0.0,0.0,49,0.00,,,0.00,,2013-01-21 04:43:00,
2013-01-20 23:53:00,42.0,25.0,30.13,NNW,346,0.0,2.0,50,0.00,,,0.00,,2013-01-21 04:53:00,